Time,TemperatureF,DewpointF,PressureIn,WindDirection,WindDirectionDegrees,WindSpeedMPH,WindSpeedGustMPH,Humidity,HourlyPrecipIn,Conditions,Clouds,dailyrainin,SolarRadiationWatts/m^2,SoftwareType,DateUTC
2013-06-22 00:01:00,71.5,50.2,29.46,NNE,23,1.8,3.4,47,0.00,BKN,BKN,0.00,0.0,WeatherDisplay:10.37,2013-06-22 06:01:00,
2013-06-22 00:06:00,71.4,50.7,29.45,NNE,22,0.0,0.0,48,0.00,BKN,BKN,0.00,0.0,WeatherDisplay:10.37,2013-06-22 06:06:00,
2013-06-22 00:11:00,71.3,50.6,29.46,NNE,22,0.0,0.0,48,0.00,BKN,BKN,0.00,0.0,WeatherDisplay:10.37,2013-06-22 06:11:00,
2013-06-22 00:16:00,71.2,50.5,29.46,NNE,23,0.0,0.0,48,0.00,BKN,BKN,0.00,0.0,WeatherDisplay:10.37,2013-06-22 06:16:00,
2013-06-22 00:21:00,71.0,49.7,29.46,North,5,4.8,6.9,47,0.00,BKN,BKN,0.00,0.0,WeatherDisplay:10.37,2013-06-22 06:21:00,
2013-06-22 00:26:00,70.8,49.0,29.46,NNW,344,3.1,5.8,46,0.00,BKN,BKN,0.00,0.0,WeatherDisplay:10.37,2013-06-22 06:26:00,
2013-06-22 00:31:00,70.6,47.6,29.47,NNE,26,1.9,6.9,44,0.00,BKN,BKN,0.00,0.0,WeatherDisplay:10.37,2013-06-22 06:31:00,
2013-06-22 00:36:00,70.5,46.9,29.48,North,360,2.3,4.6,43,0.00,BKN,BKN,0.00,0.0,WeatherDisplay:10.37,2013-06-22 06:36:00,
2013-06-22 00:41:00,70.3,46.7,29.49,NNE,17,1.9,4.6,43,0.00,BKN,BKN,0.00,0.0,WeatherDisplay:10.37,2013-06-22 06:41:00,
2013-06-22 00:46:00,70.0,45.8,29.49,NNE,18,0.1,3.4,42,0.00,BKN,BKN,0.00,0.0,WeatherDisplay:10.37,2013-06-22 06:46:00,
2013-06-22 00:51:00,69.6,45.5,29.48,North,355,0.0,6.9,42,0.00,BKN,BKN,0.00,0.0,WeatherDisplay:10.37,2013-06-22 06:51:00,
2013-06-22 00:56:00,69.3,45.2,29.48,NNE,24,2.3,10.3,42,0.00,BKN,BKN,0.00,0.0,WeatherDisplay:10.37,2013-06-22 06:56:00,
2013-06-22 01:01:00,69.0,45.6,29.48,NNE,13,2.0,3.4,43,0.00,BKN,BKN,0.00,0.0,WeatherDisplay:10.37,2013-06-22 07:01:00,
2013-06-22 01:06:00,68.6,45.8,29.49,NE,35,0.0,4.6,44,0.00,BKN,BKN,0.00,0.0,WeatherDisplay:10.37,2013-06-22 07:06:00,
2013-06-22 01:11:00,68.4,45.6,29.49,NE,35,0.9,1.1,44,0.00,BKN,BKN,0.00,0.0,WeatherDisplay:10.37,2013-06-22 07:11:00,
2013-06-22 01:16:00,68.2,46.6,29.49,NNW,330,0.0,3.4,46,0.00,BKN,BKN,0.00,0.0,WeatherDisplay:10.37,2013-06-22 07:16:00,
2013-06-22 01:21:00,67.9,46.9,29.49,NNW,330,0.0,1.1,47,0.00,BKN,BKN,0.00,0.0,WeatherDisplay:10.37,2013-06-22 07:21:00,
2013-06-22 01:26:00,67.7,47.3,29.49,NNW,330,0.0,0.0,48,0.00,BKN,BKN,0.00,0.0,WeatherDisplay:10.37,2013-06-22 07:26:00,
2013-06-22 01:31:00,67.4,47.6,29.51,NNW,331,0.0,1.1,49,0.00,BKN,BKN,0.00,0.0,WeatherDisplay:10.37,2013-06-22 07:31:00,
2013-06-22 01:36:00,67.1,47.3,29.51,NNW,331,0.0,2.3,49,0.00,BKN,BKN,0.00,0.0,WeatherDisplay:10.37,2013-06-22 07:36:00,
2013-06-22 01:41:00,66.8,47.6,29.51,NNW,330,0.3,0.0,50,0.00,BKN,BKN,0.00,0.0,WeatherDisplay:10.37,2013-06-22 07:41:00,
2013-06-22 01:46:00,66.6,47.9,29.50,NNW,330,0.4,1.0,51,0.00,BKN,BKN,0.00,0.0,WeatherDisplay:10.37,2013-06-22 07:46:00,
2013-06-22 01:51:00,66.3,48.1,29.50,NNW,330,0.8,2.0,52,0.00,BKN,BKN,0.00,0.0,WeatherDisplay:10.37,2013-06-22 07:51:00,
2013-06-22 01:56:00,66.1,48.5,29.51,NNW,331,0.1,2.3,53,0.00,BKN,BKN,0.00,0.0,WeatherDisplay:10.37,2013-06-22 07:56:00,
2013-06-22 02:01:00,65.9,48.8,29.50,North,360,2.1,4.6,54,0.00,BKN,BKN,0.00,0.0,WeatherDisplay:10.37,2013-06-22 08:01:00,
2013-06-22 02:06:00,65.7,49.1,29.49,North,360,0.0,3.4,55,0.00,BKN,BKN,0.00,0.0,WeatherDisplay:10.37,2013-06-22 08:06:00,
2013-06-22 02:11:00,65.5,48.9,29.50,North,360,0.0,0.0,55,0.00,BKN,BKN,0.00,0.0,WeatherDisplay:10.37,2013-06-22 08:11:00,
2013-06-22 02:16:00,65.4,49.3,29.51,North,360,0.3,3.4,56,0.00,BKN,BKN,0.00,0.0,WeatherDisplay:10.37,2013-06-22 08:16:00,
2013-06-22 02:21:00,65.2,49.6,29.51,North,360,0.6,3.4,57,0.00,BKN,BKN,0.00,0.0,WeatherDisplay:10.37,2013-06-22 08:21:00,
2013-06-22 02:26:00,65.1,49.5,29.51,North,360,0.4,3.4,57,0.00,BKN,BKN,0.00,0.0,WeatherDisplay:10.37,2013-06-22 08:26:00,
2013-06-22 02:31:00,64.9,49.8,29.51,North,9,0.0,3.4,58,0.00,BKN,BKN,0.00,0.0,WeatherDisplay:10.37,2013-06-22 08:31:00,
2013-06-22 02:36:00,64.7,49.6,29.52,North,9,0.0,0.0,58,0.00,BKN,BKN,0.00,0.0,WeatherDisplay:10.37,2013-06-22 08:36:00,
2013-06-22 02:41:00,64.5,49.8,29.51,North,9,0.9,2.3,59,0.00,BKN,BKN,0.00,0.0,WeatherDisplay:10.37,2013-06-22 08:41:00,
2013-06-22 02:46:00,64.3,49.7,29.52,North,9,0.0,1.1,59,0.00,BKN,BKN,0.00,0.0,WeatherDisplay:10.37,2013-06-22 08:46:00,
2013-06-22 02:51:00,64.2,49.6,29.51,North,9,0.0,1.1,59,0.00,BKN,BKN,0.00,0.0,WeatherDisplay:10.37,2013-06-22 08:51:00,
2013-06-22 02:56:00,63.9,49.7,29.51,North,9,0.6,1.1,60,0.00,BKN,BKN,0.00,0.0,WeatherDisplay:10.37,2013-06-22 08:56:00,
2013-06-22 03:01:00,63.7,49.5,29.51,North,9,0.0,0.0,60,0.00,SCT,SCT,0.00,0.0,WeatherDisplay:10.37,2013-06-22 09:01:00,
2013-06-22 03:06:00,63.5,49.8,29.54,North,9,0.0,1.1,61,0.00,SCT,SCT,0.00,0.0,WeatherDisplay:10.37,2013-06-22 09:06:00,
2013-06-22 03:11:00,63.3,49.6,29.54,North,9,0.2,1.1,61,0.00,SCT,SCT,0.00,0.0,WeatherDisplay:10.37,2013-06-22 09:11:00,
2013-06-22 03:16:00,63.1,49.9,29.55,North,9,0.0,0.0,62,0.00,SCT,SCT,0.00,0.0,WeatherDisplay:10.37,2013-06-22 09:16:00,
2013-06-22 03:21:00,62.8,50.0,29.55,North,9,0.3,2.3,63,0.00,SCT,SCT,0.00,0.0,WeatherDisplay:10.37,2013-06-22 09:21:00,
2013-06-22 03:26:00,62.6,49.8,29.55,North,9,0.0,0.0,63,0.00,SCT,SCT,0.00,0.0,WeatherDisplay:10.37,2013-06-22 09:26:00,
2013-06-22 03:31:00,62.4,49.6,29.56,North,9,0.7,3.4,63,0.00,SCT,SCT,0.00,0.0,WeatherDisplay:10.37,2013-06-22 09:31:00,
2013-06-22 03:36:00,62.2,49.9,29.56,North,9,0.8,2.0,64,0.00,SCT,SCT,0.00,0.0,WeatherDisplay:10.37,2013-06-22 09:36:00,
2013-06-22 03:41:00,62.0,49.7,29.56,NNE,18,1.1,5.8,64,0.00,SCT,SCT,0.00,0.0,WeatherDisplay:10.37,2013-06-22 09:41:00,
2013-06-22 03:46:00,61.8,49.5,29.56,NNE,19,0.6,3.4,64,0.00,SCT,SCT,0.00,0.0,WeatherDisplay:10.37,2013-06-22 09:46:00,
2013-06-22 03:51:00,61.7,49.4,29.55,NNE,19,1.7,3.4,64,0.00,SCT,SCT,0.00,0.0,WeatherDisplay:10.37,2013-06-22 09:51:00,
2013-06-22 03:56:00,61.7,49.4,29.56,NNE,19,0.9,3.0,64,0.00,SCT,SCT,0.00,0.0,WeatherDisplay:10.37,2013-06-22 09:56:00,
2013-06-22 04:01:00,61.6,49.3,29.56,NNE,25,0.2,3.4,64,0.00,CLR,CLR,0.00,0.0,WeatherDisplay:10.37,2013-06-22 10:01:00,
2013-06-22 04:06:00,61.6,49.3,29.58,NNE,25,0.0,1.1,64,0.00,CLR,CLR,0.00,0.0,WeatherDisplay:10.37,2013-06-22 10:06:00,
2013-06-22 04:11:00,61.5,49.2,29.58,NNE,25,0.0,0.0,64,0.00,CLR,CLR,0.00,0.0,WeatherDisplay:10.37,2013-06-22 10:11:00,
2013-06-22 04:16:00,61.4,49.1,29.58,NNE,25,0.0,0.0,64,0.00,CLR,CLR,0.00,0.0,WeatherDisplay:10.37,2013-06-22 10:16:00,
2013-06-22 04:21:00,61.3,49.0,29.58,NNE,25,0.0,0.0,64,0.00,CLR,CLR,0.00,0.0,WeatherDisplay:10.37,2013-06-22 10:21:00,
2013-06-22 04:26:00,61.1,48.8,29.58,NNE,25,1.0,0.0,64,0.00,CLR,CLR,0.00,0.0,WeatherDisplay:10.37,2013-06-22 10:26:00,
2013-06-22 04:31:00,60.9,48.6,29.59,NNE,25,1.2,3.4,64,0.00,CLR,CLR,0.00,0.0,WeatherDisplay:10.37,2013-06-22 10:31:00,
2013-06-22 04:36:00,60.6,48.4,29.59,NNE,23,0.0,1.1,64,0.00,CLR,CLR,0.00,0.0,WeatherDisplay:10.37,2013-06-22 10:36:00,
2013-06-22 04:41:00,60.4,48.2,29.60,NNE,23,0.0,0.0,64,0.00,CLR,CLR,0.00,0.0,WeatherDisplay:10.37,2013-06-22 10:41:00,
2013-06-22 04:46:00,60.3,48.1,29.61,NNE,22,0.0,0.0,64,0.00,CLR,CLR,0.00,0.0,WeatherDisplay:10.37,2013-06-22 10:46:00,
2013-06-22 04:51:00,60.1,47.9,29.61,NNE,23,0.0,0.0,64,0.00,CLR,CLR,0.00,0.0,WeatherDisplay:10.37,2013-06-22 10:51:00,
2013-06-22 04:56:00,60.0,47.8,29.61,NNE,22,0.0,0.0,64,0.00,CLR,CLR,0.00,0.0,WeatherDisplay:10.37,2013-06-22 10:56:00,
2013-06-22 05:02:00,59.9,47.7,29.61,NNE,22,0.0,0.0,64,0.00,SCT,SCT,0.00,0.0,WeatherDisplay:10.37,2013-06-22 11:02:00,
2013-06-22 05:07:00,59.7,47.5,29.61,NNE,23,0.0,0.0,64,0.00,SCT,SCT,0.00,0.0,WeatherDisplay:10.37,2013-06-22 11:07:00,
2013-06-22 05:12:00,59.5,47.3,29.61,NNE,23,0.0,0.0,64,0.00,SCT,SCT,0.00,0.0,WeatherDisplay:10.37,2013-06-22 11:12:00,
2013-06-22 05:17:00,59.3,47.5,29.62,NNE,23,0.0,0.0,65,0.00,SCT,SCT,0.00,0.0,WeatherDisplay:10.37,2013-06-22 11:17:00,
2013-06-22 05:22:00,59.0,47.2,29.62,NNE,23,0.0,0.0,65,0.00,SCT,SCT,0.00,0.0,WeatherDisplay:10.37,2013-06-22 11:22:00,
2013-06-22 05:27:00,59.0,47.2,29.62,NNE,23,0.0,0.0,65,0.00,SCT,SCT,0.00,0.0,WeatherDisplay:10.37,2013-06-22 11:27:00,
2013-06-22 05:32:00,58.8,47.5,29.62,NNE,23,0.0,0.0,66,0.00,SCT,SCT,0.00,0.0,WeatherDisplay:10.37,2013-06-22 11:32:00,
2013-06-22 05:37:00,58.5,47.2,29.62,NNE,22,0.0,0.0,66,0.00,SCT,SCT,0.00,0.0,WeatherDisplay:10.37,2013-06-22 11:37:00,
2013-06-22 05:42:00,58.2,46.9,29.62,NNE,23,0.0,0.0,66,0.00,SCT,SCT,0.00,5.0,WeatherDisplay:10.37,2013-06-22 11:42:00,
2013-06-22 05:47:00,58.0,46.7,29.62,NNE,23,0.0,0.0,66,0.00,SCT,SCT,0.00,7.0,WeatherDisplay:10.37,2013-06-22 11:47:00,
2013-06-22 05:52:00,57.8,46.9,29.62,NNE,23,0.0,0.0,67,0.00,SCT,SCT,0.00,9.0,WeatherDisplay:10.37,2013-06-22 11:52:00,
2013-06-22 05:57:00,57.7,46.8,29.62,NNE,22,0.0,0.0,67,0.00,SCT,SCT,0.00,12.0,WeatherDisplay:10.37,2013-06-22 11:57:00,
2013-06-22 06:02:00,57.6,47.1,29.62,NNE,22,0.0,0.0,68,0.00,SCT,SCT,0.00,14.0,WeatherDisplay:10.37,2013-06-22 12:02:00,
2013-06-22 06:07:00,57.5,47.0,29.63,NNE,23,0.0,0.0,68,0.00,SCT,SCT,0.00,18.0,WeatherDisplay:10.37,2013-06-22 12:07:00,
2013-06-22 06:12:00,57.3,46.8,29.63,NNE,23,0.0,0.0,68,0.00,SCT,SCT,0.00,23.0,WeatherDisplay:10.37,2013-06-22 12:12:00,
2013-06-22 06:17:00,57.2,46.7,29.63,NNE,23,0.0,0.0,68,0.00,SCT,SCT,0.00,26.0,WeatherDisplay:10.37,2013-06-22 12:17:00,
2013-06-22 06:22:00,57.1,47.0,29.63,NNE,22,0.0,0.0,69,0.00,SCT,SCT,0.00,32.0,WeatherDisplay:10.37,2013-06-22 12:22:00,
2013-06-22 06:27:00,57.1,47.0,29.63,NNE,23,0.0,0.0,69,0.00,SCT,SCT,0.00,35.0,WeatherDisplay:10.37,2013-06-22 12:27:00,
2013-06-22 06:32:00,57.1,47.4,29.63,NNE,23,0.0,0.0,70,0.00,SCT,SCT,0.00,60.0,WeatherDisplay:10.37,2013-06-22 12:32:00,
2013-06-22 06:37:00,57.2,47.5,29.63,NNE,22,0.0,0.0,70,0.00,SCT,SCT,0.00,135.0,WeatherDisplay:10.37,2013-06-22 12:37:00,
2013-06-22 06:42:00,57.4,47.7,29.62,NNE,23,0.0,0.0,70,0.00,SCT,SCT,0.00,151.0,WeatherDisplay:10.37,2013-06-22 12:42:00,
2013-06-22 06:47:00,57.9,48.2,29.62,NNE,22,0.0,0.0,70,0.00,SCT,SCT,0.00,165.0,WeatherDisplay:10.37,2013-06-22 12:47:00,
2013-06-22 06:52:00,58.3,48.6,29.63,NNE,22,0.0,0.0,70,0.00,SCT,SCT,0.00,181.0,WeatherDisplay:10.37,2013-06-22 12:52:00,
2013-06-22 06:57:00,58.9,49.1,29.61,NNE,23,0.0,0.0,70,0.00,SCT,SCT,0.00,197.0,WeatherDisplay:10.37,2013-06-22 12:57:00,
2013-06-22 07:02:00,59.1,48.5,29.62,NNE,23,0.0,1.1,68,0.00,SCT,SCT,0.00,213.0,WeatherDisplay:10.37,2013-06-22 13:02:00,
2013-06-22 07:07:00,59.7,48.7,29.61,NNE,22,0.0,0.0,67,0.00,SCT,SCT,0.00,229.0,WeatherDisplay:10.37,2013-06-22 13:07:00,
2013-06-22 07:12:00,60.1,48.7,29.61,NNE,23,0.0,0.0,66,0.00,SCT,SCT,0.00,239.0,WeatherDisplay:10.37,2013-06-22 13:12:00,
2013-06-22 07:17:00,60.6,48.8,29.61,NNE,22,0.0,0.0,65,0.00,SCT,SCT,0.00,258.0,WeatherDisplay:10.37,2013-06-22 13:17:00,
2013-06-22 07:22:00,61.2,48.5,29.62,ENE,59,0.0,0.0,63,0.00,SCT,SCT,0.00,274.0,WeatherDisplay:10.37,2013-06-22 13:22:00,
2013-06-22 07:27:00,61.7,48.5,29.61,ENE,59,0.0,1.1,62,0.00,SCT,SCT,0.00,292.0,WeatherDisplay:10.37,2013-06-22 13:27:00,
2013-06-22 07:32:00,62.1,48.9,29.61,ENE,59,0.0,0.0,62,0.00,SCT,SCT,0.00,308.0,WeatherDisplay:10.37,2013-06-22 13:32:00,
2013-06-22 07:37:00,62.5,48.9,29.61,ENE,59,0.1,1.1,61,0.00,SCT,SCT,0.00,325.0,WeatherDisplay:10.37,2013-06-22 13:37:00,
2013-06-22 07:42:00,62.9,49.2,29.60,ENE,59,0.3,1.1,61,0.00,SCT,SCT,0.00,343.0,WeatherDisplay:10.37,2013-06-22 13:42:00,
2013-06-22 07:47:00,63.5,48.9,29.59,ENE,59,0.0,0.0,59,0.00,SCT,SCT,0.00,359.0,WeatherDisplay:10.37,2013-06-22 13:47:00,
2013-06-22 07:52:00,64.0,48.9,29.59,ENE,59,0.1,1.1,58,0.00,SCT,SCT,0.00,376.0,WeatherDisplay:10.37,2013-06-22 13:52:00,
2013-06-22 07:57:00,64.3,48.7,29.59,ENE,59,1.6,2.0,57,0.00,SCT,SCT,0.00,392.0,WeatherDisplay:10.37,2013-06-22 13:57:00,
2013-06-22 08:02:00,64.4,48.4,29.59,ENE,59,0.3,1.1,56,0.00,SCT,SCT,0.00,410.0,WeatherDisplay:10.37,2013-06-22 14:02:00,
2013-06-22 08:07:00,64.6,48.1,29.59,ENE,59,0.5,2.3,55,0.00,SCT,SCT,0.00,427.0,WeatherDisplay:10.37,2013-06-22 14:07:00,
2013-06-22 08:12:00,64.9,48.8,29.59,ENE,59,1.9,4.0,56,0.00,SCT,SCT,0.00,443.0,WeatherDisplay:10.37,2013-06-22 14:12:00,
2013-06-22 08:17:00,65.3,48.7,29.59,ENE,59,0.5,2.3,55,0.00,SCT,SCT,0.00,461.0,WeatherDisplay:10.37,2013-06-22 14:17:00,
2013-06-22 08:22:00,65.7,49.1,29.58,ENE,59,0.0,0.0,55,0.00,SCT,SCT,0.00,475.0,WeatherDisplay:10.37,2013-06-22 14:22:00,
2013-06-22 08:27:00,66.2,49.1,29.58,ENE,59,0.2,1.1,54,0.00,SCT,SCT,0.00,490.0,WeatherDisplay:10.37,2013-06-22 14:27:00,
2013-06-22 08:32:00,66.6,48.9,29.58,NE,52,2.3,4.6,53,0.00,SCT,SCT,0.00,510.0,WeatherDisplay:10.37,2013-06-22 14:32:00,
2013-06-22 08:37:00,66.8,49.1,29.58,NE,51,0.9,2.3,53,0.00,SCT,SCT,0.00,526.0,WeatherDisplay:10.37,2013-06-22 14:37:00,
2013-06-22 08:42:00,67.2,49.5,29.58,NE,51,0.1,1.1,53,0.00,SCT,SCT,0.00,540.0,WeatherDisplay:10.37,2013-06-22 14:42:00,
2013-06-22 08:47:00,67.5,49.3,29.57,NW,305,0.1,1.1,52,0.00,SCT,SCT,0.00,554.0,WeatherDisplay:10.37,2013-06-22 14:47:00,
2013-06-22 08:52:00,67.7,49.4,29.57,NW,306,0.2,1.1,52,0.00,SCT,SCT,0.00,568.0,WeatherDisplay:10.37,2013-06-22 14:52:00,
2013-06-22 08:57:00,68.0,48.7,29.57,NW,307,0.0,1.0,50,0.00,SCT,SCT,0.00,587.0,WeatherDisplay:10.37,2013-06-22 14:57:00,
2013-06-22 09:02:00,68.5,49.7,29.56,NNE,22,2.1,4.6,51,0.00,FEW,FEW,0.00,603.0,WeatherDisplay:10.37,2013-06-22 15:02:00,
2013-06-22 09:07:00,68.9,50.0,29.59,NE,51,0.2,3.4,51,0.00,FEW,FEW,0.00,617.0,WeatherDisplay:10.37,2013-06-22 15:07:00,
2013-06-22 09:12:00,69.4,49.9,29.59,NE,52,1.4,3.4,50,0.00,FEW,FEW,0.00,635.0,WeatherDisplay:10.37,2013-06-22 15:12:00,
2013-06-22 09:17:00,69.8,49.8,29.59,NE,52,0.7,3.4,49,0.00,FEW,FEW,0.00,649.0,WeatherDisplay:10.37,2013-06-22 15:17:00,
2013-06-22 09:22:00,70.1,50.0,29.59,North,11,0.3,1.1,49,0.00,FEW,FEW,0.00,663.0,WeatherDisplay:10.37,2013-06-22 15:22:00,
2013-06-22 09:27:00,70.2,49.6,29.59,North,11,1.8,3.4,48,0.00,FEW,FEW,0.00,671.0,WeatherDisplay:10.37,2013-06-22 15:27:00,
2013-06-22 09:32:00,70.2,49.0,29.59,North,10,0.2,1.1,47,0.00,FEW,FEW,0.00,687.0,WeatherDisplay:10.37,2013-06-22 15:32:00,
2013-06-22 09:37:00,70.5,49.3,29.59,East,98,1.6,3.4,47,0.00,FEW,FEW,0.00,705.0,WeatherDisplay:10.37,2013-06-22 15:37:00,
2013-06-22 09:42:00,70.9,49.1,29.58,ENE,72,0.0,3.4,46,0.00,FEW,FEW,0.00,715.0,WeatherDisplay:10.37,2013-06-22 15:42:00,
2013-06-22 09:47:00,71.1,50.4,29.58,NNE,19,0.1,1.1,48,0.00,FEW,FEW,0.00,733.0,WeatherDisplay:10.37,2013-06-22 15:47:00,
2013-06-22 09:52:00,71.2,49.4,29.57,NNE,19,0.0,0.0,46,0.00,FEW,FEW,0.00,745.0,WeatherDisplay:10.37,2013-06-22 15:52:00,
2013-06-22 09:57:00,71.2,49.4,29.57,North,11,0.0,0.0,46,0.00,FEW,FEW,0.00,758.0,WeatherDisplay:10.37,2013-06-22 15:57:00,
2013-06-22 10:02:00,71.3,50.0,29.57,West,271,2.3,5.8,47,0.00,FEW,FEW,0.00,768.0,WeatherDisplay:10.37,2013-06-22 16:02:00,
2013-06-22 10:07:00,71.5,49.6,29.59,NW,304,1.2,3.4,46,0.00,FEW,FEW,0.00,782.0,WeatherDisplay:10.37,2013-06-22 16:07:00,
2013-06-22 10:12:00,71.6,49.7,29.59,WSW,257,0.3,3.4,46,0.00,FEW,FEW,0.00,796.0,WeatherDisplay:10.37,2013-06-22 16:12:00,
2013-06-22 10:17:00,72.4,49.9,29.59,NNW,333,1.3,3.4,45,0.00,FEW,FEW,0.00,807.0,WeatherDisplay:10.37,2013-06-22 16:17:00,
2013-06-22 10:22:00,72.8,50.2,29.57,NNE,28,0.3,2.3,45,0.00,FEW,FEW,0.00,821.0,WeatherDisplay:10.37,2013-06-22 16:22:00,
2013-06-22 10:27:00,73.3,50.7,29.57,NE,36,0.5,2.3,45,0.00,FEW,FEW,0.00,831.0,WeatherDisplay:10.37,2013-06-22 16:27:00,
2013-06-22 10:32:00,73.4,50.8,29.57,NNE,29,0.1,1.1,45,0.00,FEW,FEW,0.00,844.0,WeatherDisplay:10.37,2013-06-22 16:32:00,
2013-06-22 10:37:00,73.5,50.2,29.57,NNE,26,2.6,4.6,44,0.00,FEW,FEW,0.00,851.0,WeatherDisplay:10.37,2013-06-22 16:37:00,
2013-06-22 10:42:00,73.3,50.1,29.57,West,270,0.0,1.1,44,0.00,FEW,FEW,0.00,863.0,WeatherDisplay:10.37,2013-06-22 16:42:00,
2013-06-22 10:47:00,73.7,51.0,29.57,North,9,3.0,4.6,45,0.00,FEW,FEW,0.00,868.0,WeatherDisplay:10.37,2013-06-22 16:47:00,
2013-06-22 10:52:00,74.3,51.0,29.57,NE,45,1.7,7.0,44,0.00,FEW,FEW,0.00,881.0,WeatherDisplay:10.37,2013-06-22 16:52:00,
2013-06-22 10:57:00,74.6,50.6,29.56,NNE,31,2.5,4.6,43,0.00,FEW,FEW,0.00,893.0,WeatherDisplay:10.37,2013-06-22 16:57:00,
2013-06-22 11:02:00,74.6,50.6,29.56,NNE,13,1.9,3.4,43,0.00,FEW,FEW,0.00,902.0,WeatherDisplay:10.37,2013-06-22 17:02:00,
2013-06-22 11:07:00,74.6,51.2,29.56,NNE,33,1.9,5.8,44,0.00,FEW,FEW,0.00,907.0,WeatherDisplay:10.37,2013-06-22 17:07:00,
2013-06-22 11:12:00,74.8,50.8,29.56,NNE,30,1.5,4.6,43,0.00,SCT,SCT,0.00,916.0,WeatherDisplay:10.37,2013-06-22 17:12:00,
2013-06-22 11:17:00,75.2,51.2,29.56,ESE,113,0.7,3.4,43,0.00,SCT,SCT,0.00,925.0,WeatherDisplay:10.37,2013-06-22 17:17:00,
2013-06-22 11:22:00,75.8,51.1,29.55,NNE,30,4.1,6.9,42,0.00,SCT,SCT,0.00,935.0,WeatherDisplay:10.37,2013-06-22 17:22:00,
2013-06-22 11:27:00,76.2,52.1,29.55,East,92,1.0,5.0,43,0.00,SCT,SCT,0.00,939.0,WeatherDisplay:10.37,2013-06-22 17:27:00,
2013-06-22 11:32:00,76.6,51.1,29.55,ENE,57,0.1,1.1,41,0.00,SCT,SCT,0.00,947.0,WeatherDisplay:10.37,2013-06-22 17:32:00,
2013-06-22 11:37:00,77.0,50.8,29.55,ESE,117,1.4,3.4,40,0.00,SCT,SCT,0.00,956.0,WeatherDisplay:10.37,2013-06-22 17:37:00,
2013-06-22 11:42:00,77.0,50.1,29.55,NNE,32,3.2,6.9,39,0.00,SCT,SCT,0.00,962.0,WeatherDisplay:10.37,2013-06-22 17:42:00,
2013-06-22 11:47:00,77.1,50.2,29.54,NE,37,2.9,9.2,39,0.00,SCT,SCT,0.00,963.0,WeatherDisplay:10.37,2013-06-22 17:47:00,
2013-06-22 11:52:00,77.2,51.0,29.54,NE,41,2.1,3.4,40,0.00,SCT,SCT,0.00,972.0,WeatherDisplay:10.37,2013-06-22 17:52:00,
2013-06-22 11:57:00,78.0,51.0,29.53,NE,47,1.0,3.4,39,0.00,SCT,SCT,0.00,972.0,WeatherDisplay:10.37,2013-06-22 17:57:00,
2013-06-22 12:02:00,78.5,51.5,29.52,NE,54,0.4,2.3,39,0.00,SCT,SCT,0.00,976.0,WeatherDisplay:10.37,2013-06-22 18:02:00,
2013-06-22 12:07:00,79.1,51.3,29.53,ENE,65,3.8,6.9,38,0.00,SCT,SCT,0.00,990.0,WeatherDisplay:10.37,2013-06-22 18:07:00,
2013-06-22 12:12:00,79.4,50.1,29.52,NNE,26,3.7,5.8,36,0.00,SCT,SCT,0.00,997.0,WeatherDisplay:10.37,2013-06-22 18:12:00,
2013-06-22 12:17:00,79.7,51.1,29.52,North,5,2.1,5.8,37,0.00,SCT,SCT,0.00,1000.0,WeatherDisplay:10.37,2013-06-22 18:17:00,
2013-06-22 12:22:00,79.8,51.2,29.52,North,350,0.9,3.4,37,0.00,SCT,SCT,0.00,1000.0,WeatherDisplay:10.37,2013-06-22 18:22:00,
2013-06-22 12:27:00,80.0,52.1,29.52,NNE,28,0.0,0.0,38,0.00,SCT,SCT,0.00,1016.0,WeatherDisplay:10.37,2013-06-22 18:27:00,
2013-06-22 12:32:00,80.5,51.1,29.51,NNE,30,2.5,4.6,36,0.00,SCT,SCT,0.00,918.0,WeatherDisplay:10.37,2013-06-22 18:32:00,
2013-06-22 12:37:00,80.6,51.9,29.50,NE,36,1.7,5.8,37,0.00,SCT,SCT,0.00,1032.0,WeatherDisplay:10.37,2013-06-22 18:37:00,
2013-06-22 12:42:00,80.7,50.5,29.51,North,5,0.1,1.1,35,0.00,SCT,SCT,0.00,1013.0,WeatherDisplay:10.37,2013-06-22 18:42:00,
2013-06-22 12:47:00,81.2,50.2,29.50,South,184,3.3,4.6,34,0.00,SCT,SCT,0.00,1027.0,WeatherDisplay:10.37,2013-06-22 18:47:00,
2013-06-22 12:52:00,80.9,52.2,29.50,SW,235,0.8,4.0,37,0.00,SCT,SCT,0.00,1042.0,WeatherDisplay:10.37,2013-06-22 18:52:00,
2013-06-22 12:57:00,81.2,50.9,29.50,WNW,288,0.2,1.1,35,0.00,SCT,SCT,0.00,1058.0,WeatherDisplay:10.37,2013-06-22 18:57:00,
2013-06-22 13:02:00,81.4,50.3,29.49,East,94,1.4,4.6,34,0.00,SCT,SCT,0.00,1097.0,WeatherDisplay:10.37,2013-06-22 19:02:00,
2013-06-22 13:07:00,81.7,49.8,29.50,East,94,1.0,2.3,33,0.00,SCT,SCT,0.00,1102.0,WeatherDisplay:10.37,2013-06-22 19:07:00,
2013-06-22 13:12:00,82.4,52.8,29.49,NE,42,0.0,1.1,36,0.00,SCT,SCT,0.00,1053.0,WeatherDisplay:10.37,2013-06-22 19:12:00,
2013-06-22 13:17:00,83.0,50.9,29.49,NE,39,0.3,1.1,33,0.00,SCT,SCT,0.00,1041.0,WeatherDisplay:10.37,2013-06-22 19:17:00,
2013-06-22 13:22:00,83.4,51.3,29.49,NE,42,2.4,6.9,33,0.00,SCT,SCT,0.00,1028.0,WeatherDisplay:10.37,2013-06-22 19:22:00,
2013-06-22 13:27:00,83.5,50.5,29.48,East,87,1.5,6.0,32,0.00,SCT,SCT,0.00,1034.0,WeatherDisplay:10.37,2013-06-22 19:27:00,
2013-06-22 13:32:00,83.9,49.1,29.48,ESE,121,3.4,4.6,30,0.00,SCT,SCT,0.00,1034.0,WeatherDisplay:10.37,2013-06-22 19:32:00,
2013-06-22 13:37:00,84.3,49.5,29.48,NNE,29,1.6,3.4,30,0.00,SCT,SCT,0.00,1037.0,WeatherDisplay:10.37,2013-06-22 19:37:00,
2013-06-22 13:42:00,84.1,51.9,29.47,West,279,4.0,6.9,33,0.00,SCT,SCT,0.00,1005.0,WeatherDisplay:10.37,2013-06-22 19:42:00,
2013-06-22 13:47:00,84.4,51.3,29.47,NNW,338,2.5,3.4,32,0.00,SCT,SCT,0.00,1007.0,WeatherDisplay:10.37,2013-06-22 19:47:00,
2013-06-22 13:52:00,84.9,51.7,29.46,North,355,3.4,6.9,32,0.00,SCT,SCT,0.00,1004.0,WeatherDisplay:10.37,2013-06-22 19:52:00,
2013-06-22 13:57:00,85.1,51.9,29.46,WNW,290,2.5,5.8,32,0.00,SCT,SCT,0.00,1000.0,WeatherDisplay:10.37,2013-06-22 19:57:00,
2013-06-22 14:02:00,85.2,53.7,29.45,WNW,288,0.6,3.4,34,0.00,SCT,SCT,0.00,990.0,WeatherDisplay:10.37,2013-06-22 20:02:00,
2013-06-22 14:07:00,85.8,51.7,29.45,ESE,105,0.8,3.4,31,0.00,SCT,SCT,0.00,868.0,WeatherDisplay:10.37,2013-06-22 20:07:00,
2013-06-22 14:12:00,86.2,52.0,29.45,NNE,13,2.6,10.3,31,0.00,SCT,SCT,0.00,998.0,WeatherDisplay:10.37,2013-06-22 20:12:00,
2013-06-22 14:17:00,86.5,53.1,29.44,NNE,15,3.5,5.0,32,0.00,SCT,SCT,0.00,995.0,WeatherDisplay:10.37,2013-06-22 20:17:00,
2013-06-22 14:22:00,86.8,51.6,29.45,NNE,17,2.6,4.6,30,0.00,SCT,SCT,0.00,988.0,WeatherDisplay:10.37,2013-06-22 20:22:00,
2013-06-22 14:27:00,86.8,52.5,29.44,NNE,13,3.3,9.2,31,0.00,SCT,SCT,0.00,1004.0,WeatherDisplay:10.37,2013-06-22 20:27:00,
2013-06-22 14:32:00,86.7,51.6,29.45,North,360,3.0,8.1,30,0.00,SCT,SCT,0.00,1028.0,WeatherDisplay:10.37,2013-06-22 20:32:00,
2013-06-22 14:37:00,86.8,52.5,29.44,NE,35,3.9,9.2,31,0.00,SCT,SCT,0.00,970.0,WeatherDisplay:10.37,2013-06-22 20:37:00,
2013-06-22 14:42:00,86.6,52.4,29.44,North,360,4.9,14.9,31,0.00,SCT,SCT,0.00,591.0,WeatherDisplay:10.37,2013-06-22 20:42:00,
2013-06-22 14:47:00,86.0,52.7,29.44,NW,304,0.5,3.4,32,0.00,SCT,SCT,0.00,580.0,WeatherDisplay:10.37,2013-06-22 20:47:00,
2013-06-22 14:52:00,86.0,52.7,29.43,NNE,28,3.9,6.9,32,0.00,SCT,SCT,0.00,809.0,WeatherDisplay:10.37,2013-06-22 20:52:00,
2013-06-22 14:57:00,86.3,53.0,29.43,NNE,27,2.0,4.6,32,0.00,SCT,SCT,0.00,856.0,WeatherDisplay:10.37,2013-06-22 20:57:00,
2013-06-22 15:02:00,86.6,52.4,29.43,NW,304,5.3,11.5,31,0.00,BKN,BKN,0.00,664.0,WeatherDisplay:10.37,2013-06-22 21:02:00,
2013-06-22 15:07:00,86.3,53.0,29.44,NNW,336,3.1,11.5,32,0.00,BKN,BKN,0.00,633.0,WeatherDisplay:10.37,2013-06-22 21:07:00,
2013-06-22 15:12:00,85.9,52.6,29.44,North,360,3.0,8.1,32,0.00,BKN,BKN,0.00,575.0,WeatherDisplay:10.37,2013-06-22 21:12:00,
2013-06-22 15:17:00,85.5,53.1,29.44,NW,306,4.4,7.0,33,0.00,BKN,BKN,0.00,846.0,WeatherDisplay:10.37,2013-06-22 21:17:00,
2013-06-22 15:22:00,85.2,52.8,29.45,NW,311,2.7,8.1,33,0.00,BKN,BKN,0.00,816.0,WeatherDisplay:10.37,2013-06-22 21:22:00,
2013-06-22 15:27:00,84.8,52.5,29.45,WNW,303,2.8,6.0,33,0.00,BKN,BKN,0.00,865.0,WeatherDisplay:10.37,2013-06-22 21:27:00,
2013-06-22 15:32:00,84.3,52.9,29.44,NNE,23,3.0,6.9,34,0.00,BKN,BKN,0.00,861.0,WeatherDisplay:10.37,2013-06-22 21:32:00,
2013-06-22 15:37:00,84.1,53.5,29.44,NNE,24,3.4,6.9,35,0.00,BKN,BKN,0.00,856.0,WeatherDisplay:10.37,2013-06-22 21:37:00,
2013-06-22 15:42:00,84.0,52.6,29.44,West,272,3.3,6.9,34,0.00,BKN,BKN,0.00,810.0,WeatherDisplay:10.37,2013-06-22 21:42:00,
2013-06-22 15:47:00,83.8,53.2,29.44,North,350,2.2,5.0,35,0.00,BKN,BKN,0.00,772.0,WeatherDisplay:10.37,2013-06-22 21:47:00,
2013-06-22 15:52:00,83.6,52.3,29.44,NNE,25,3.3,6.9,34,0.00,BKN,BKN,0.00,364.0,WeatherDisplay:10.37,2013-06-22 21:52:00,
2013-06-22 15:57:00,83.1,51.8,29.45,NNW,343,3.1,5.8,34,0.00,BKN,BKN,0.00,195.0,WeatherDisplay:10.37,2013-06-22 21:57:00,
2013-06-22 16:02:00,82.2,51.8,29.45,NNE,24,4.1,11.5,35,0.00,BKN,BKN,0.00,253.0,WeatherDisplay:10.37,2013-06-22 22:02:00,
2013-06-22 16:07:00,81.6,51.3,29.45,NNW,327,2.9,6.9,35,0.00,BKN,BKN,0.00,828.0,WeatherDisplay:10.37,2013-06-22 22:07:00,
2013-06-22 16:12:00,82.1,53.2,29.46,West,279,1.4,5.8,37,0.00,BKN,BKN,0.00,782.0,WeatherDisplay:10.37,2013-06-22 22:12:00,
2013-06-22 16:17:00,82.7,52.3,29.46,WNW,287,2.4,9.2,35,0.00,BKN,BKN,0.00,462.0,WeatherDisplay:10.37,2013-06-22 22:17:00,
2013-06-22 16:22:00,82.7,51.5,29.46,North,360,3.5,6.9,34,0.00,BKN,BKN,0.00,424.0,WeatherDisplay:10.37,2013-06-22 22:22:00,
2013-06-22 16:27:00,82.6,51.4,29.45,NNW,330,1.2,3.4,34,0.00,BKN,BKN,0.00,206.0,WeatherDisplay:10.37,2013-06-22 22:27:00,
2013-06-22 16:32:00,82.4,51.2,29.45,North,5,1.1,3.4,34,0.00,BKN,BKN,0.00,269.0,WeatherDisplay:10.37,2013-06-22 22:32:00,
2013-06-22 16:37:00,82.4,52.0,29.44,North,10,0.3,2.3,35,0.00,BKN,BKN,0.00,445.0,WeatherDisplay:10.37,2013-06-22 22:37:00,
2013-06-22 16:42:00,83.0,51.7,29.44,North,355,0.5,1.1,34,0.00,BKN,BKN,0.00,680.0,WeatherDisplay:10.37,2013-06-22 22:42:00,
2013-06-22 16:47:00,83.9,51.7,29.42,NW,321,0.3,1.1,33,0.00,BKN,BKN,0.00,666.0,WeatherDisplay:10.37,2013-06-22 22:47:00,
2013-06-22 16:52:00,84.6,51.5,29.42,NNE,19,1.2,3.4,32,0.00,BKN,BKN,0.00,410.0,WeatherDisplay:10.37,2013-06-22 22:52:00,
2013-06-22 16:57:00,84.8,49.9,29.42,North,9,1.4,3.4,30,0.00,BKN,BKN,0.00,364.0,WeatherDisplay:10.37,2013-06-22 22:57:00,
2013-06-22 17:02:00,84.7,48.9,29.42,NE,38,2.7,4.6,29,0.00,BKN,BKN,0.00,206.0,WeatherDisplay:10.37,2013-06-22 23:02:00,
2013-06-22 17:07:00,84.4,48.7,29.43,North,9,0.5,3.0,29,0.00,BKN,BKN,0.00,443.0,WeatherDisplay:10.37,2013-06-22 23:07:00,
2013-06-22 17:12:00,84.5,48.8,29.43,NNE,15,2.4,3.4,29,0.00,BKN,BKN,0.00,158.0,WeatherDisplay:10.37,2013-06-22 23:12:00,
2013-06-22 17:17:00,84.2,49.4,29.43,ENE,72,2.4,6.9,30,0.00,BKN,BKN,0.00,221.0,WeatherDisplay:10.37,2013-06-22 23:17:00,
2013-06-22 17:22:00,83.6,48.9,29.43,NE,40,1.7,3.4,30,0.00,BKN,BKN,0.00,148.0,WeatherDisplay:10.37,2013-06-22 23:22:00,
2013-06-22 17:27:00,83.3,50.4,29.44,ENE,60,2.2,4.6,32,0.00,BKN,BKN,0.00,125.0,WeatherDisplay:10.37,2013-06-22 23:27:00,
2013-06-22 17:32:00,82.9,50.8,29.44,NE,40,5.1,6.9,33,0.00,BKN,BKN,0.00,204.0,WeatherDisplay:10.37,2013-06-22 23:32:00,
2013-06-22 17:37:00,82.6,51.4,29.44,NNE,25,3.4,6.9,34,0.00,BKN,BKN,0.00,258.0,WeatherDisplay:10.37,2013-06-22 23:37:00,
2013-06-22 17:42:00,82.3,51.1,29.44,North,9,0.2,1.1,34,0.00,BKN,BKN,0.00,183.0,WeatherDisplay:10.37,2013-06-22 23:42:00,
2013-06-22 17:47:00,82.2,51.0,29.44,NNE,15,0.1,2.3,34,0.00,BKN,BKN,0.00,121.0,WeatherDisplay:10.37,2013-06-22 23:47:00,
2013-06-22 17:52:00,82.1,50.9,29.44,NNE,29,0.7,3.4,34,0.00,BKN,BKN,0.00,128.0,WeatherDisplay:10.37,2013-06-22 23:52:00,
2013-06-22 17:57:00,81.9,51.6,29.44,East,99,0.1,1.1,35,0.00,BKN,BKN,0.00,193.0,WeatherDisplay:10.37,2013-06-22 23:57:00,
2013-06-22 18:02:00,81.7,51.4,29.44,East,98,0.2,2.3,35,0.00,BKN,BKN,0.00,162.0,WeatherDisplay:10.37,2013-06-23 00:02:00,
2013-06-22 18:07:00,81.8,51.5,29.43,ENE,61,0.9,3.4,35,0.00,BKN,BKN,0.00,234.0,WeatherDisplay:10.37,2013-06-23 00:07:00,
2013-06-22 18:12:00,81.7,51.4,29.44,NE,45,1.6,3.4,35,0.00,BKN,BKN,0.00,200.0,WeatherDisplay:10.37,2013-06-23 00:12:00,
2013-06-22 18:17:00,81.7,51.4,29.43,East,79,0.7,3.4,35,0.00,BKN,BKN,0.00,381.0,WeatherDisplay:10.37,2013-06-23 00:17:00,
2013-06-22 18:22:00,81.7,51.4,29.43,NE,55,3.5,11.5,35,0.00,BKN,BKN,0.00,355.0,WeatherDisplay:10.37,2013-06-23 00:22:00,
2013-06-22 18:27:00,81.7,51.4,29.43,East,82,3.9,10.3,35,0.00,BKN,BKN,0.00,334.0,WeatherDisplay:10.37,2013-06-23 00:27:00,
2013-06-22 18:32:00,81.6,50.5,29.44,ENE,75,2.1,5.0,34,0.00,BKN,BKN,0.00,295.0,WeatherDisplay:10.37,2013-06-23 00:32:00,
2013-06-22 18:37:00,80.9,50.7,29.44,SE,133,1.0,3.4,35,0.00,BKN,BKN,0.00,202.0,WeatherDisplay:10.37,2013-06-23 00:37:00,
2013-06-22 18:42:00,80.1,50.0,29.45,ESE,105,6.1,10.3,35,0.00,BKN,BKN,0.00,142.0,WeatherDisplay:10.37,2013-06-23 00:42:00,
2013-06-22 18:47:00,78.7,49.5,29.45,ESE,114,2.5,6.9,36,0.00,BKN,BKN,0.00,44.0,WeatherDisplay:10.37,2013-06-23 00:47:00,
2013-06-22 18:52:00,77.7,49.3,29.46,ESE,122,2.7,9.0,37,0.00,BKN,BKN,0.00,47.0,WeatherDisplay:10.37,2013-06-23 00:52:00,
2013-06-22 18:57:00,76.9,48.6,29.46,East,80,3.0,5.8,37,0.00,BKN,BKN,0.00,35.0,WeatherDisplay:10.37,2013-06-23 00:57:00,
2013-06-22 19:02:00,76.3,48.1,29.48,ESE,123,1.3,5.8,37,0.00,BKN,BKN,0.00,44.0,WeatherDisplay:10.37,2013-06-23 01:02:00,
2013-06-22 19:07:00,75.9,48.5,29.45,East,87,1.3,4.0,38,0.00,BKN,BKN,0.00,155.0,WeatherDisplay:10.37,2013-06-23 01:07:00,
2013-06-22 19:12:00,75.8,48.4,29.45,ESE,103,1.6,3.4,38,0.00,BKN,BKN,0.00,33.0,WeatherDisplay:10.37,2013-06-23 01:12:00,
2013-06-22 19:17:00,75.7,49.0,29.45,ESE,117,1.8,3.4,39,0.00,BKN,BKN,0.00,26.0,WeatherDisplay:10.37,2013-06-23 01:17:00,
2013-06-22 19:22:00,75.5,48.1,29.45,ESE,112,0.3,3.4,38,0.00,BKN,BKN,0.00,28.0,WeatherDisplay:10.37,2013-06-23 01:22:00,
2013-06-22 19:27:00,75.4,48.0,29.45,ESE,113,2.3,5.8,38,0.00,BKN,BKN,0.00,74.0,WeatherDisplay:10.37,2013-06-23 01:27:00,
2013-06-22 19:32:00,75.3,47.9,29.45,ESE,109,1.5,5.8,38,0.00,BKN,BKN,0.00,107.0,WeatherDisplay:10.37,2013-06-23 01:32:00,
2013-06-22 19:37:00,75.4,47.3,29.45,East,100,1.5,3.4,37,0.00,BKN,BKN,0.00,44.0,WeatherDisplay:10.37,2013-06-23 01:37:00,
2013-06-22 19:42:00,75.4,47.3,29.46,ESE,111,0.5,2.3,37,0.00,BKN,BKN,0.00,84.0,WeatherDisplay:10.37,2013-06-23 01:42:00,
2013-06-22 19:47:00,75.5,47.4,29.46,East,83,0.6,3.4,37,0.00,BKN,BKN,0.00,81.0,WeatherDisplay:10.37,2013-06-23 01:47:00,
2013-06-22 19:52:00,75.5,47.4,29.46,ESE,111,1.0,2.3,37,0.00,BKN,BKN,0.00,70.0,WeatherDisplay:10.37,2013-06-23 01:52:00,
2013-06-22 19:57:00,75.6,47.5,29.46,ESE,109,0.1,1.1,37,0.00,BKN,BKN,0.00,54.0,WeatherDisplay:10.37,2013-06-23 01:57:00,
2013-06-22 20:02:00,75.6,47.5,29.46,ESE,109,0.0,1.1,37,0.00,BKN,BKN,0.00,26.0,WeatherDisplay:10.37,2013-06-23 02:02:00,
2013-06-22 20:07:00,75.6,47.5,29.45,ESE,109,0.5,2.3,37,0.00,BKN,BKN,0.00,26.0,WeatherDisplay:10.37,2013-06-23 02:07:00,
2013-06-22 20:12:00,75.5,47.4,29.45,ESE,109,0.0,0.0,37,0.00,BKN,BKN,0.00,21.0,WeatherDisplay:10.37,2013-06-23 02:12:00,
2013-06-22 20:17:00,75.4,47.3,29.45,ESE,109,0.0,1.1,37,0.00,BKN,BKN,0.00,16.0,WeatherDisplay:10.37,2013-06-23 02:17:00,
2013-06-22 20:22:00,75.2,47.8,29.45,ESE,109,0.1,2.0,38,0.00,BKN,BKN,0.00,12.0,WeatherDisplay:10.37,2013-06-23 02:22:00,
2013-06-22 20:27:00,75.0,47.0,29.46,ESE,119,0.0,0.0,37,0.00,BKN,BKN,0.00,9.0,WeatherDisplay:10.37,2013-06-23 02:27:00,
2013-06-22 20:32:00,74.8,47.5,29.47,ESE,119,0.0,0.0,38,0.00,BKN,BKN,0.00,0.0,WeatherDisplay:10.37,2013-06-23 02:32:00,
2013-06-22 20:37:00,74.6,47.3,29.48,South,186,1.3,5.0,38,0.00,BKN,BKN,0.00,0.0,WeatherDisplay:10.37,2013-06-23 02:37:00,
2013-06-22 20:42:00,74.4,47.1,29.49,South,190,0.0,1.1,38,0.00,BKN,BKN,0.00,0.0,WeatherDisplay:10.37,2013-06-23 02:42:00,
2013-06-22 20:47:00,74.3,47.0,29.49,South,190,0.0,0.0,38,0.00,BKN,BKN,0.00,0.0,WeatherDisplay:10.37,2013-06-23 02:47:00,
2013-06-22 20:52:00,74.2,47.6,29.49,South,190,0.0,0.0,39,0.00,BKN,BKN,0.00,0.0,WeatherDisplay:10.37,2013-06-23 02:52:00,
2013-06-22 20:57:00,74.1,47.6,29.50,South,190,0.9,2.3,39,0.00,BKN,BKN,0.00,0.0,WeatherDisplay:10.37,2013-06-23 02:57:00,
2013-06-22 21:02:00,74.0,48.1,29.50,South,190,0.1,1.1,40,0.00,BKN,BKN,0.00,0.0,WeatherDisplay:10.37,2013-06-23 03:02:00,
2013-06-22 21:07:00,73.8,48.0,29.49,South,190,0.8,2.3,40,0.00,BKN,BKN,0.00,0.0,WeatherDisplay:10.37,2013-06-23 03:07:00,
2013-06-22 21:12:00,73.7,47.9,29.49,South,190,0.0,0.0,40,0.00,BKN,BKN,0.00,0.0,WeatherDisplay:10.37,2013-06-23 03:12:00,
2013-06-22 21:17:00,73.6,47.8,29.50,South,190,0.0,0.0,40,0.00,BKN,BKN,0.00,0.0,WeatherDisplay:10.37,2013-06-23 03:17:00,
2013-06-22 21:22:00,73.5,47.7,29.50,South,190,0.0,0.0,40,0.00,BKN,BKN,0.00,0.0,WeatherDisplay:10.37,2013-06-23 03:22:00,
2013-06-22 21:27:00,73.4,48.3,29.51,South,190,0.0,0.0,41,0.00,BKN,BKN,0.00,0.0,WeatherDisplay:10.37,2013-06-23 03:27:00,
2013-06-22 21:32:00,73.2,48.1,29.51,South,190,0.0,1.1,41,0.00,BKN,BKN,0.00,0.0,WeatherDisplay:10.37,2013-06-23 03:32:00,
2013-06-22 21:37:00,73.0,47.9,29.51,South,190,0.0,0.0,41,0.00,BKN,BKN,0.00,0.0,WeatherDisplay:10.37,2013-06-23 03:37:00,
2013-06-22 21:42:00,72.8,47.7,29.52,NNE,32,1.7,3.4,41,0.00,BKN,BKN,0.00,0.0,WeatherDisplay:10.37,2013-06-23 03:42:00,
2013-06-22 21:47:00,72.7,47.6,29.52,NE,44,2.0,4.6,41,0.00,BKN,BKN,0.00,0.0,WeatherDisplay:10.37,2013-06-23 03:47:00,
2013-06-22 21:52:00,72.6,47.5,29.53,NE,43,1.2,3.4,41,0.00,BKN,BKN,0.00,0.0,WeatherDisplay:10.37,2013-06-23 03:52:00,
2013-06-22 21:57:00,72.5,47.5,29.53,NNE,23,2.2,3.4,41,0.00,BKN,BKN,0.00,0.0,WeatherDisplay:10.37,2013-06-23 03:57:00,
2013-06-22 22:01:00,72.4,48.0,29.55,NNE,21,1.7,3.4,42,0.00,BKN,BKN,0.00,0.0,WeatherDisplay:10.37,2013-06-23 04:01:00,
2013-06-22 22:06:00,71.7,49.2,29.53,NNE,15,9.5,12.6,45,0.00,BKN,BKN,0.00,0.0,WeatherDisplay:10.37,2013-06-23 04:06:00,
2013-06-22 22:11:00,70.8,49.0,29.52,NNE,22,1.8,1.8,46,0.00,BKN,BKN,0.00,0.0,WeatherDisplay:10.37,2013-06-23 04:11:00,
2013-06-22 22:16:00,70.3,49.1,29.54,NNE,19,2.4,3.4,47,0.00,BKN,BKN,0.00,0.0,WeatherDisplay:10.37,2013-06-23 04:16:00,
2013-06-22 22:21:00,69.6,49.0,29.55,NNE,28,6.8,13.8,48,0.00,BKN,BKN,0.00,0.0,WeatherDisplay:10.37,2013-06-23 04:21:00,
2013-06-22 22:26:00,69.1,49.1,29.54,NE,53,0.5,2.3,49,0.00,BKN,BKN,0.00,0.0,WeatherDisplay:10.37,2013-06-23 04:26:00,
2013-06-22 22:31:00,68.8,48.9,29.55,NNE,30,3.2,4.6,49,0.00,BKN,BKN,0.00,0.0,WeatherDisplay:10.37,2013-06-23 04:31:00,
2013-06-22 22:36:00,68.5,49.1,29.54,NNE,17,1.5,2.0,50,0.00,BKN,BKN,0.00,0.0,WeatherDisplay:10.37,2013-06-23 04:36:00,
2013-06-22 22:41:00,68.4,49.0,29.56,NNE,17,0.0,0.0,50,0.00,BKN,BKN,0.00,0.0,WeatherDisplay:10.37,2013-06-23 04:41:00,
2013-06-22 22:46:00,68.2,49.4,29.57,NNE,17,0.0,0.0,51,0.00,BKN,BKN,0.00,0.0,WeatherDisplay:10.37,2013-06-23 04:46:00,
2013-06-22 22:51:00,68.0,49.2,29.57,NNE,17,0.0,0.0,51,0.00,BKN,BKN,0.00,0.0,WeatherDisplay:10.37,2013-06-23 04:51:00,
2013-06-22 22:56:00,67.7,49.4,29.57,NNE,17,0.0,1.1,52,0.00,BKN,BKN,0.00,0.0,WeatherDisplay:10.37,2013-06-23 04:56:00,
2013-06-22 23:01:00,67.5,49.3,29.57,NNE,17,0.0,0.0,52,0.00,BKN,BKN,0.00,0.0,WeatherDisplay:10.37,2013-06-23 05:01:00,
2013-06-22 23:06:00,67.2,49.0,29.55,NNE,17,0.0,2.3,52,0.00,BKN,BKN,0.00,0.0,WeatherDisplay:10.37,2013-06-23 05:06:00,
2013-06-22 23:11:00,67.0,49.3,29.55,NNE,17,0.0,1.1,53,0.00,SCT,SCT,0.00,0.0,WeatherDisplay:10.37,2013-06-23 05:11:00,
2013-06-22 23:16:00,66.7,49.0,29.55,NNE,17,0.1,1.1,53,0.00,SCT,SCT,0.00,0.0,WeatherDisplay:10.37,2013-06-23 05:16:00,
2013-06-22 23:21:00,66.3,48.7,29.56,NNE,14,1.3,4.6,53,0.00,SCT,SCT,0.00,0.0,WeatherDisplay:10.37,2013-06-23 05:21:00,
2013-06-22 23:26:00,66.1,48.5,29.56,NNE,14,0.0,0.0,53,0.00,SCT,SCT,0.00,0.0,WeatherDisplay:10.37,2013-06-23 05:26:00,
2013-06-22 23:31:00,65.9,48.3,29.56,NNE,14,0.0,0.0,53,0.00,SCT,SCT,0.00,0.0,WeatherDisplay:10.37,2013-06-23 05:31:00,
2013-06-22 23:36:00,65.8,48.2,29.56,NNE,14,0.0,0.0,53,0.00,SCT,SCT,0.00,0.0,WeatherDisplay:10.37,2013-06-23 05:36:00,
2013-06-22 23:41:00,65.6,48.5,29.56,NNE,14,0.1,2.3,54,0.00,SCT,SCT,0.00,0.0,WeatherDisplay:10.37,2013-06-23 05:41:00,
2013-06-22 23:46:00,65.4,48.3,29.56,NNE,14,0.0,0.0,54,0.00,SCT,SCT,0.00,0.0,WeatherDisplay:10.37,2013-06-23 05:46:00,
2013-06-22 23:51:00,65.3,48.2,29.57,NNE,14,0.0,0.0,54,0.00,SCT,SCT,0.00,0.0,WeatherDisplay:10.37,2013-06-23 05:51:00,
2013-06-22 23:56:00,65.1,48.5,29.57,NNE,14,0.0,1.1,55,0.00,SCT,SCT,0.00,0.0,WeatherDisplay:10.37,2013-06-23 05:56:00,